User: anonymous   Login
Location: Unspecified
(0.0000°N, 0.0000°E)
Time: 09:56:30
(UTC+00:00)
Language:

Meteor 2-3 - Orbit

View from above orbital plane
View from above orbital plane
View from above satellite
View from above satellite

Ground track
Ground track

The orbit data is extracted from the following two-line orbital elements,

1 10514U 77117A   18199.54218853 -.00000037 +00000-0 -27526-4 0  9996
2 10514 081.2050 194.7451 0023023 229.8911 130.0242 14.10419173087279
Epoch (UTC): 18 July 2018 13:00:45
Eccentricity: 0.0023023
inclination: 81.2050°
perigee height: 841 km
apogee height: 874 km
right ascension of ascending node: 194.7451°
argument of perigee: 229.8911°
revolutions per day: 14.10419173
mean anomaly at epoch: 130.0242°
orbit number at epoch: 8727

The dashed part of the orbit path shows where the satellite is in the earth's shadow,  

DLR